Regional Weather Roundup
Issued by NWS

Home | Current Version | Previous Version | Graphics & Text | Print | Product List | Glossary On
Versions: 1 2 3 4 5 6 7 8 9 10 11 12 13 14 15 16 17 18 19 20 21 22 23 24 25 26 27 28 29 30 31 32 33 34 35 36 37 38 39 40 41 42 43 44 45 46 47 48 49 50
000
ASUS43 KDTX 050010
RWRMI
MICHIGAN HOURLY REGIONAL WEATHER ROUNDUP
NATIONAL WEATHER SERVICE DETROIT/PONTIAC MI
800 PM EDT WED MAY 04 2016

NOTE: "FAIR" INDICATES FEW OR NO CLOUDS BELOW 12,000 FEET WITH NO
SIGNIFICANT WEATHER AND/OR OBSTRUCTION TO VISIBILITY.

MIZ047>049-052>055-059>063-066>070-074>076-081>083-050100-
SOUTHEAST LOWER MICHIGAN

CITY           SKY/WX    TMP DP  RH WIND       PRES   REMARKS
ADRIAN         CLOUDY    46  40  79 W6        29.67R
6HR MIN TEMP:  46; 6HR MAX TEMP:  53; 6HR PCP: TRACE;

ALMA           LGT RAIN  46  46  97 N9G17     29.71R
ANN ARBOR      CLOUDY    47  42  83 W8        29.65R
BAD AXE        MOCLDY    47  41  81 N8        29.71R
CARO           CLOUDY    48  45  91 N10       29.70R FOG
DETROIT CITY   LGT RAIN  50  47  89 S7        29.67R
6HR MIN TEMP:  50; 6HR MAX TEMP:  60; 6HR PCP:  0.29;

DETROIT        LGT RAIN  50  45  83 S5        29.67R
6HR MIN TEMP:  50; 6HR MAX TEMP:  56; 6HR PCP:  0.08;

FLINT          CLOUDY    53  47  79 NE8       29.68R
6HR MIN TEMP:  52; 6HR MAX TEMP:  61; 6HR PCP:  0.25;

GROSSE ILE     DRIZZLE   50  46  87 CALM      29.65R
HILLSDALE      CLOUDY    41  38  89 W10       29.66R FOG
HOWELL         CLOUDY    47  46  96 S3        29.65R

CITY           SKY/WX    TMP DP  RH WIND       PRES   REMARKS
JACKSON        CLOUDY    43  41  93 SW7       29.64R FOG
6HR MIN TEMP:  43; 6HR MAX TEMP:  50; 6HR PCP:  0.01;

LAMBERTVILLE   CLOUDY    50  43  77 W6        29.67R
6HR MIN TEMP:  50; 6HR MAX TEMP:  56;

LANSING        LGT RAIN  49  47  93 NE13      29.64R
6HR MIN TEMP:  48; 6HR MAX TEMP:  50; 6HR PCP:  0.11;

LAPEER         DRIZZLE   51  46  84 CALM      29.68R
6HR MIN TEMP:  51; 6HR MAX TEMP:  61; 6HR PCP:  0.02;

MASON          CLOUDY    46  43  91 SE6       29.64R
MONROE         CLOUDY    49  44  80 W7        29.65R
6HR MIN TEMP:  49; 6HR MAX TEMP:  57; 6HR PCP:  0.07;

MT. CLEMENS    CLOUDY    51  49  94 SE6       29.66R
6HR MIN TEMP:  51; 6HR MAX TEMP:  58; 6HR PCP:  0.01;

PONTIAC        LGT RAIN  49  46  90 SE9       29.65R
6HR MIN TEMP:  49; 6HR MAX TEMP:  58; 6HR PCP:  0.21;

PORT HOPE        N/A     44  41  89 NW6       29.71R
6HR MIN TEMP:  44; 6HR MAX TEMP:  59;

PORT HURON     CLOUDY    52  46  82 SW5       29.68R
TRI CITIES     LGT RAIN  50  46  86 NE13      29.72R FOG
6HR MIN TEMP:  50; 6HR MAX TEMP:  53; 6HR PCP:  0.31;

MIDLAND        RAIN      48  46  95 N8G16     29.71R
6HR MIN TEMP:  47; 6HR MAX TEMP:  52; 6HR PCP:  0.49;

TROY           LGT RAIN  50  49  95 SE3       29.68R
SAGINAW HB     RAIN      48  45  87 N9        29.70R
$$
MIZ043>046-050>051-056>058-064>065-071>073-077>080-050100-
SOUTHWEST LOWER MICHIGAN

CITY           SKY/WX    TMP DP  RH WIND       PRES   REMARKS
BATTLE CREEK   LGT RAIN  42  40  92 NW12      29.66R FOG
6HR MIN TEMP:  42; 6HR MAX TEMP:  46; 6HR PCP:  0.12;

BENTON HARBOR  LGT RAIN  41  37  86 N12G25    29.77R FOG
6HR MIN TEMP:  39; 6HR MAX TEMP:  43; 6HR PCP:  0.37;

BIG RAPIDS     RAIN      42  38  87 N13G20    29.75R
6HR MIN TEMP:  41; 6HR MAX TEMP:  42; 6HR PCP:  0.15;

COLDWATER      LGT SNOW  40  38  95 W13       29.67R WCI  32
6HR MIN TEMP:  40; 6HR MAX TEMP:  47;

FREMONT        LGT RAIN  41  39  94 N15G25    29.76R
HOLLAND        LGT RAIN N/A N/A N/A N15G26    29.75R
                                      6HR PCP:  0.22;

GRAND RAPIDS   LGT RAIN  44  41  89 N16       29.70R FOG
6HR MIN TEMP:  43; 6HR MAX TEMP:  45; 6HR PCP:  0.16;

IONIA          RAIN      44  43  95 N13       29.67R
6HR MIN TEMP:  43; 6HR MAX TEMP:  45; 6HR PCP:  0.01;

KALAMAZOO      LGT RAIN  41  37  86 NW14      29.68S FOG
6HR MIN TEMP:  41; 6HR MAX TEMP:  46; 6HR PCP:  0.14;

LUDINGTON      CLOUDY    41  34  75 N18G31    29.82R
6HR MIN TEMP:  40; 6HR MAX TEMP:  43;

MARSHALL       CLOUDY    42  41  95 W10       29.63R
6HR MIN TEMP:  42; 6HR MAX TEMP:  46; 6HR PCP:  0.01;

MOUNT PLEASANT CLOUDY    46  45  93 N12         N/A
MUSKEGON       LGT RAIN  42  37  82 N12G22    29.78R
6HR MIN TEMP:  42; 6HR MAX TEMP:  43; 6HR PCP:  0.26;

SOUTH HAVEN    MIX PCPN  40  39  97 N18G28    29.75R WCI  31
$$
MIZ016>042-050100-
NORTHERN LOWER MICHIGAN

CITY           SKY/WX    TMP DP  RH WIND       PRES   REMARKS
ALPENA         CLOUDY    46  42  86 N17       29.78R
6HR MIN TEMP:  46; 6HR MAX TEMP:  48; 6HR PCP: TRACE;

BEAVER ISLAND  CLEAR     45  33  63 N8G18     29.87R
6HR MIN TEMP:  45; 6HR MAX TEMP:  50;

BELLAIRE       LGT RAIN  46  36  68 N8G17     29.83R
6HR MIN TEMP:  43; 6HR MAX TEMP:  48;

CADILLAC       LGT RAIN  40  37  91 N14       29.77R WCI  32
CHARLEVOIX     CLOUDY    43  37  79 N12G17    29.87R
FRANKFORT      CLOUDY    42  35  74 N16G23    29.86R
GAYLORD        LGT RAIN  43  40  89 VRB7      29.81R
6HR MIN TEMP:  43; 6HR MAX TEMP:  45; 6HR PCP:  0.14;

GRAYLING       MIX PCPN  43  43 100 VRB15     29.80R
HARBOR SPRINGS CLOUDY    47  37  68 N6        29.83R
HOUGHTON LAKE  CLOUDY    44  41  89 N14       29.77R
6HR MIN TEMP:  44; 6HR MAX TEMP:  45; 6HR PCP:  0.05;

MANISTEE       MOCLDY    43  30  61 N13G24    29.84R
OSCODA         PTCLDY    50  43  76 N14       29.74R
6HR MIN TEMP:  50; 6HR MAX TEMP:  55;

PELLSTON       CLOUDY    47  39  74 N5        29.84R
6HR MIN TEMP:  46; 6HR MAX TEMP:  49; 6HR PCP:  0.02;

ROGERS CITY    FLURRIES  42  40  93 NW10      29.82R
TRAVERSE CITY  CLOUDY    45  35  68 N8        29.82R
6HR MIN TEMP:  42; 6HR MAX TEMP:  46; 6HR PCP: TRACE;

$$
MIZ007>008-015-050100-
EASTERN UPPER MICHIGAN

CITY           SKY/WX    TMP DP  RH WIND       PRES   REMARKS
KINROSS          N/A     43  39  87 N7        29.85R
6HR MIN TEMP:  43; 6HR MAX TEMP:  46;

MACKINAC ISLAN CLOUDY    45  35  69 N13G21    29.83R
6HR MIN TEMP:  45; 6HR MAX TEMP:  48;

NEWBERRY       MOCLDY    42  32  67 N9G20     29.88R
6HR MIN TEMP:  42; 6HR MAX TEMP:  46;

S. S. MARIE    LGT RAIN  46  39  76 NE8       29.85R
6HR MIN TEMP:  46; 6HR MAX TEMP:  52; 6HR PCP:  0.01;

MUNISING         N/A     39  33  79 N15       29.94R WCI  31
6HR MIN TEMP:  38; 6HR MAX TEMP:  40;

$$
MIZ004>006-011>014-085-050100-
CENTRAL UPPER MICHIGAN

CITY           SKY/WX    TMP DP  RH WIND       PRES   REMARKS
MANISTIQUE     CLEAR     42  31  64 N22       29.88R
6HR MIN TEMP:  42; 6HR MAX TEMP:  49;

ESCANABA         N/A    N/A N/A N/A MISG        N/A
MENOMINEE      PTCLDY    46  32  57 N13       29.93R
6HR MIN TEMP:  46; 6HR MAX TEMP:  52;

SAWYER-GWINN   MOCLDY    37  28  70 N16G26    29.95R WCI  28
$$
MIZ001>003-009>011-084-050100-
WESTERN UPPER MICHIGAN

CITY           SKY/WX    TMP DP  RH WIND       PRES   REMARKS
IRON MOUNTAIN  CLOUDY    42  30  62 N18       29.93R
6HR MIN TEMP:  42; 6HR MAX TEMP:  47;

HOUGHTON       SUNNY     45  31  58 NE14      29.96S
6HR MIN TEMP:  40; 6HR MAX TEMP:  47;

COPPER HARBOR    N/A     43  35  73 N7        29.97S
6HR MIN TEMP:  39; 6HR MAX TEMP:  43;

IRONWOOD         N/A     48  30  49 N6        29.95S
6HR MIN TEMP:  43; 6HR MAX TEMP:  48;

$$

ABBREVIATIONS USED IN REMARKS
   TC - TEMPERATURE IN CELSIUS
  WCI - WIND CHILL INDEX
   HX - HEAT INDEX
  VSB - VISIBILITY




USA.gov is the U.S. government's official web portal to all federal, state and local government web resources and services.